User: anonymous   Login
Location: Unspecified
(0.0000°N, 0.0000°E)
Time: 04:39:19
(UTC+00:00)
Language:

ETS 8 - Orbit

View from above orbital plane
View from above orbital plane
View from above satellite
View from above satellite

Ground track
Ground track

The orbit data is extracted from the following two-line orbital elements,

1 29656U 06059A   15186.90251269 -.00000253  00000-0  00000+0 0  9993
2 29656 004.2626 063.7651 0006335 035.6768 294.7297 01.00272286 31338
Epoch (UTC): 05 July 2015 21:39:37
Eccentricity: 0.0006335
inclination: 4.2626°
perigee height: 35759 km
apogee height: 35813 km
right ascension of ascending node: 63.7651°
argument of perigee: 35.6768°
revolutions per day: 1.00272286
mean anomaly at epoch: 294.7297°
orbit number at epoch: 3133

The dashed part of the orbit path shows where the satellite is in the earth's shadow,  

DLR